Weather in Induruwa

Sri Lanka     6°23′12″N   80°00′32″E
В апреле 2022 года жителям России запретили посещать сайт meteo.paraplan.net по решению Генеральной прокуратуры. Аудитория сайта уменьшилась в 10 раз. Владельцы сайта не видят смысла в поддержке погодного сервера в таких условиях. Сайт будет закрыт в октябре.
temp.,
°C
wind,
m/s
gust,
m/s
humid.,
%
clouds,
%
prec.,
mm/h
press.,
hPa
HPBL,
m
26 september, mon
mon2623:30+27w3684100 0.1 1010459
02:30+26w3586100 3.6 1008336
05:30+25wnw3488100 8.9 1009244
08:30+27w348180 2.4 1011573
11:30+29w457188 4.3 1010910
14:30+28w4573100 1.3 1008759
17:30+27wsw458188 2.3 1008514
20:30+26wsw3686100 1.8 1010431
27 september, tue
tue2723:30+26wsw468641 4.3 1010398
02:30+26w4887100 6.7 1008463
05:30+26w4786100 11.1 1009398
08:30+27w578021 3.9 1011769
11:30+28w567916 6.4 1010863
14:30+29w566819 0.1 10071192
17:30+27w578032 0.4 1007691
20:30+26w4785100 1.7 1010506
28 september, wed
wed2823:30+26w4785100 2.8 1010533
02:30+26w588599 3.3 1008503
05:30+26w588569 7.7 1008470
08:30+27w5782100 4.3 1010774
11:30+28w677971 8.0 1010895
14:30+27wsw5781100 3.9 1007744
17:30+26wsw5883100 8.1 1008574
20:30+26wsw5886100 3.8 1010545
29 september, thu
thu2923:30+26wsw5883100 6.6 1010569
02:30+26wsw6985100 3.7 1007614
05:30+26w5885100 8.8 1008551
08:30+26w5982100 2.8 1010645
11:30+26w5882100 5.3 1009594
14:30+26w5884100 3.9 1007567
17:30+26w6884100 7.7 1008595
20:30+26wsw5885100 3.6 1010502
30 september, fri
fri3023:30+26wsw5886100 6.7 1010464
02:30+26w5986100 2.9 1008590
05:30+26w5885100 5.3 1009499
08:30+27w5782100 3.6 1011782
11:30+27wsw5881100 7.1 1010837
14:30+27w5783100 4.1 1008743
17:30+26wsw5885100 8.3 1009570
20:30+26wsw5887100 6.3 1011496